| time (UTC) | temp C | wind direction | speed KPH | gust KPH | rain 1hr cm | rain 24hr cm | rain mn cm | humidity % | barometer mb |
| 20260504204637 | 27 | 61 | 8.0 | 22.5 | 0.00 | 0.20 | 0.00 | 82 | 1012.1 |
| 20260504203056 | 26 | 70 | 8.0 | 17.7 | 0.00 | 0.20 | 0.00 | 83 | 1012.0 |
| 20260504201559 | 26 | 74 | 9.7 | 24.1 | 0.00 | 0.20 | 0.00 | 83 | 1011.8 |
| 20260504194558 | 26 | 67 | 4.8 | 16.1 | 0.00 | 0.20 | 0.00 | 86 | 1011.6 |
| 20260504193056 | 26 | 76 | 6.4 | 22.5 | 0.00 | 0.20 | 0.00 | 85 | 1011.5 |
| 20260504191559 | 26 | 76 | 6.4 | 20.9 | 0.00 | 0.20 | 0.00 | 84 | 1011.3 |
| 20260504184605 | 26 | 65 | 4.8 | 16.1 | 0.00 | 0.20 | 0.00 | 85 | 1011.1 |
| 20260504183101 | 26 | 53 | 8.0 | 20.9 | 0.00 | 0.20 | 0.00 | 84 | 1011.1 |
| 20260504181556 | 26 | 72 | 4.8 | 17.7 | 0.00 | 0.20 | 0.00 | 86 | 1011.0 |
| 20260504180058 | 26 | 64 | 6.4 | 14.5 | 0.00 | 0.20 | 0.00 | 84 | 1011.0 |
| 20260504174559 | 26 | 76 | 6.4 | 14.5 | 0.00 | 0.20 | 0.00 | 84 | 1011.0 |
| 20260504173058 | 26 | 64 | 4.8 | 11.3 | 0.00 | 0.20 | 0.00 | 83 | 1011.1 |
| 20260504171558 | 26 | 88 | 9.7 | 22.5 | 0.00 | 0.20 | 0.00 | 82 | 1011.2 |
| 20260504081558 | 27 | 48 | 9.7 | 24.1 | 0.00 | 0.43 | 0.43 | 85 | 1011.3 |
| 20260504070107 | 27 | 84 | 11.3 | 22.5 | 0.00 | 0.43 | 0.43 | 82 | 1010.7 |
| 20260504060109 | 28 | 92 | 8.0 | 20.9 | 0.00 | 0.43 | 0.43 | 83 | 1010.7 |
| 20260504044603 | 27 | 108 | 12.9 | 20.9 | 0.00 | 0.43 | 0.43 | 84 | 1010.9 |
| 20260504043057 | 27 | 75 | 16.1 | 27.4 | 0.00 | 0.43 | 0.43 | 81 | 1011.1 |
| 20260504041556 | 29 | 69 | 9.7 | 17.7 | 0.00 | 0.43 | 0.43 | 80 | 1011.1 |
| 20260504040058 | 28 | 105 | 8.0 | 22.5 | 0.00 | 0.43 | 0.43 | 82 | 1011.2 |
| 20260504034614 | 28 | 63 | 11.3 | 20.9 | 0.00 | 0.43 | 0.43 | 82 | 1011.4 |
| 20260504033057 | 28 | 79 | 11.3 | 19.3 | 0.00 | 0.43 | 0.43 | 82 | 1011.5 |
| 20260504031556 | 28 | 100 | 11.3 | 22.5 | 0.00 | 0.43 | 0.43 | 82 | 1011.7 |
| 20260504030058 | 28 | 69 | 12.9 | 22.5 | 0.00 | 0.43 | 0.43 | 81 | 1011.7 |
| 20260504024558 | 28 | 97 | 11.3 | 22.5 | 0.00 | 0.43 | 0.43 | 80 | 1012.0 |
| 20260504023100 | 28 | 84 | 14.5 | 25.7 | 0.00 | 0.43 | 0.43 | 80 | 1012.1 |
| 20260504021557 | 28 | 78 | 14.5 | 32.2 | 0.00 | 0.43 | 0.43 | 82 | 1012.2 |
| 20260504020058 | 28 | 86 | 14.5 | 25.7 | 0.00 | 0.43 | 0.43 | 80 | 1012.3 |
| 20260504014616 | 28 | 72 | 8.0 | 24.1 | 0.00 | 0.43 | 0.43 | 82 | 1012.4 |
| 20260504013104 | 28 | 92 | 11.3 | 24.1 | 0.00 | 0.43 | 0.43 | 81 | 1012.7 |
| 20260504011603 | 28 | 61 | 11.3 | 20.9 | 0.00 | 0.43 | 0.43 | 81 | 1012.7 |
| 20260504010100 | 28 | 70 | 12.9 | 22.5 | 0.00 | 0.43 | 0.43 | 80 | 1012.8 |
| 20260504004558 | 28 | 77 | 9.7 | 19.3 | 0.00 | 0.43 | 0.43 | 82 | 1012.9 |
| 20260504003100 | 28 | 84 | 11.3 | 22.5 | 0.00 | 0.43 | 0.43 | 81 | 1013.0 |
| 20260504001613 | 28 | 73 | 9.7 | 24.1 | 0.00 | 0.43 | 0.43 | 82 | 1012.9 |
| 20260504000058 | 28 | 70 | 11.3 | 17.7 | 0.00 | 0.43 | 0.43 | 84 | 1013.0 |
| 20260503234559 | 28 | 62 | 8.0 | 20.9 | 0.00 | 0.43 | 0.43 | 84 | 1012.9 |
| 20260503233057 | 27 | 74 | 9.7 | 22.5 | 0.00 | 0.43 | 0.43 | 82 | 1013.0 |
| 20260503231559 | 27 | 96 | 9.7 | 19.3 | 0.00 | 0.43 | 0.43 | 84 | 1013.0 |
| 20260503230100 | 27 | 71 | 9.7 | 20.9 | 0.00 | 0.43 | 0.43 | 86 | 1013.0 |
| 20260503224558 | 27 | 65 | 9.7 | 20.9 | 0.00 | 0.43 | 0.43 | 85 | 1012.9 |
| 20260503223057 | 27 | 73 | 11.3 | 24.1 | 0.00 | 0.43 | 0.43 | 84 | 1012.7 |
| 20260503221558 | 27 | 74 | 11.3 | 19.3 | 0.00 | 0.43 | 0.43 | 85 | 1012.6 |
| 20260503220105 | 27 | 72 | 8.0 | 22.5 | 0.00 | 0.43 | 0.43 | 84 | 1012.5 |
| 20260503214558 | 27 | 74 | 6.4 | 19.3 | 0.03 | 0.43 | 0.43 | 85 | 1012.2 |
| 20260503213110 | 26 | 86 | 8.0 | 17.7 | 0.15 | 0.43 | 0.43 | 88 | 1012.1 |
| 20260503211557 | 26 | 78 | 4.8 | 12.9 | 0.18 | 0.43 | 0.43 | 91 | 1012.0 |
| 20260503210104 | 25 | 71 | 3.2 | 16.1 | 0.18 | 0.43 | 0.43 | 89 | 1011.7 |